Date,TemperatureHighF,TemperatureAvgF,TemperatureLowF,DewpointHighF,DewpointAvgF,DewpointLowF,HumidityHigh,HumidityAvg,HumidityLow,PressureMaxIn,PressureMinIn,WindSpeedMaxMPH,WindSpeedAvgMPH,GustSpeedMaxMPH,PrecipitationSumIn
2013-3-1,32,30,26,30,26,22,94,86,76,29.96,29.79,14,1,15,0.02
2013-3-2,30,27,25,23,22,20,91,82,70,29.95,29.89,12,1,14,0.01
2013-3-3,28,26,24,24,20,16,94,79,62,30.01,29.91,16,3,16,0.01
2013-3-4,38,28,20,22,18,14,84,66,45,30.12,30.01,16,2,20,0.00
2013-3-5,48,33,17,31,18,10,94,58,21,30.08,29.63,28,1,33,0.00
2013-3-6,45,36,32,37,31,28,100,84,64,30.09,29.63,10,0,22,0.35
2013-3-7,40,35,31,33,30,27,93,83,61,30.27,30.07,13,1,16,0.01
2013-3-8,37,32,26,30,27,23,90,80,70,30.40,30.26,13,2,17,0.02
2013-3-9,55,37,20,33,26,18,98,70,31,30.40,30.14,10,0,13,0.00
2013-3-10,72,53,33,36,31,28,84,50,22,30.14,29.93,16,3,23,0.00
2013-3-11,64,56,46,50,36,29,92,50,27,29.94,29.62,27,5,36,0.17
2013-3-12,48,40,36,45,34,28,94,80,68,29.97,29.72,19,5,20,0.02
2013-3-13,36,32,28,31,26,20,96,82,58,30.12,29.90,23,6,26,0.03
2013-3-14,40,30,24,22,19,17,75,64,44,30.22,30.10,20,4,29,0.00
2013-3-15,50,37,21,36,27,17,90,67,52,30.14,29.78,24,4,24,0.01
2013-3-16,43,38,33,40,37,31,99,95,78,29.93,29.58,11,1,16,0.03
2013-3-17,38,33,29,31,25,22,92,73,55,30.17,29.93,9,0,12,0.00
2013-3-18,41,35,31,38,32,23,98,87,71,30.13,29.66,32,4,34,0.45
2013-3-19,44,38,30,44,28,17,98,67,41,29.95,29.65,34,8,38,0.04
2013-3-20,40,32,26,22,18,15,72,57,41,29.96,29.79,22,5,27,0.00
2013-3-21,28,24,19,20,14,8,87,64,46,29.91,29.84,21,4,23,0.00
2013-3-22,36,29,24,21,19,18,84,68,51,30.02,29.89,20,4,20,0.00
2013-3-23,48,32,17,28,21,15,94,66,34,30.03,29.95,17,1,21,0.00
2013-3-24,44,34,26,31,24,19,93,69,42,29.97,29.48,25,2,31,0.00
2013-3-25,36,34,31,36,33,30,100,98,88,29.71,29.40,13,2,16,0.53
2013-3-26,41,36,32,33,32,28,100,87,69,30.06,29.71,15,2,16,0.05
2013-3-27,43,37,32,34,29,25,98,76,50,30.14,30.04,20,4,25,0.04
2013-3-28,44,39,35,32,29,28,78,69,54,30.23,30.10,15,3,17,0.00
2013-3-29,53,43,34,34,28,21,90,61,29,30.24,30.12,20,2,21,0.00
2013-3-30,57,41,23,34,23,18,94,55,22,30.23,29.98,14,1,14,0.00
2013-3-31,50,44,36,48,39,27,97,82,57,29.98,29.69,14,2,16,0.08